Location: Broadview
(41.2178°N, 81.6385°W)
Time: 09:18:25
(UTC+00:00)

X-37B - Visible Passes

Search period start: 05 October 2022 00:00
Search period end: 15 October 2022 00:00
Orbit: 329 x 342 km, 45.0° (Epoch: 29 September)

Date Brightness Start Highest point End Pass type
(mag) Time Alt. Az. Time Alt. Az. Time Alt. Az.
05 Oct 2.8 09:23:08 22° E 09:23:08 22° E 09:24:20 10° ESE visible
05 Oct 2.0 10:54:29 10° W 10:56:44 20° SW 10:58:58 10° SSE visible
06 Oct 2.1 09:43:08 27° SE 09:43:08 27° SE 09:44:42 10° SE visible
07 Oct 2.5 10:03:17 17° S 10:03:17 17° S 10:04:25 10° SSE visible
